Location: Bidwell Hollow
(37.7387°N, 90.1707°W)
Time: 22:29:40
(UTC+00:00)

Transit 2A - Pass Details

Date: 19 May 2026
Orbit: 595 x 949 km, 66.7° (Epoch: 6 June)

Event Time Altitude Azimuth Distance (km) Brightness Sun altitude
Rises 04:58:05 0° 341° (NNW) 3,143 10.3 -30.8°
Reaches altitude 10° 05:00:53 10° 354° (N) 2,155 9.2 -31.0°
Enters shadow 05:04:17 25° 37° (NE) 1,326 7.5 -31.2°
